Location: Arbon
(43.0005°N, 0.7472°E)
Time: 09:49:58
(UTC+00:00)

Vanguard 2 Rocket - Pass Details

Date: 02 December 2020
Orbit: 554 x 3325 km, 32.9° (Epoch: 21 January)

Event Time Altitude Azimuth Distance (km) Brightness Sun altitude
Rises 05:26:36 0° 216° (SW) 6,376 11.0 -18.3°
Reaches altitude 10° 05:30:53 10° 209° (SSW) 5,661 10.8 -17.6°
Maximum altitude 05:47:10 39° 148° (SSE) 4,295 10.7 -14.7°
Drops below altitude 10° 06:04:14 10° 89° (E) 5,962 12.3 -11.7°
Sets 06:08:50 0° 82° (E) 6,737 12.5 -10.9°
